Temp_Advection
nan nan nan nan nan nan nan nan nan nan nan nan nan nan nan nan nan nan nan nan nan nan nan nan nan nan nan nan nan nan nan nan nan nan nan nan nan nan nan nan nan nan nan nan nan nan nan nan nan nan nan nan nan nan
nan 0 -0 -0 -0 -0 -0 -0 -0 -0 -0 0 0 -0 -0 -1 0 1 -1 -0 0 -1 -1 -0 -0 -2 -1 0 -0 -0 -0 -0 -0 -0 0 -0 -0 -0 -0 -0 -0 -0 -0 -0 -1 -0 -0 0 0 0 0 0 0 nan
nan -0 0 0 -0 -0 -0 -0 -0 -0 -0 0 0 0 -0 -0 -0 -0 -1 -0 -0 -1 -1 -0 -1 -1 -0 -1 1 0 -1 -1 -1 0 0 0 0 -0 -0 -0 -0 0 0 -0 0 0 0 0 0 0 0 0 0 nan
nan -0 -0 -0 -0 -0 -0 -0 -0 -0 0 -0 -0 -0 -0 -0 -0 -0 -1 -1 -1 -1 -1 -1 1 -0 -2 -2 0 -0 -1 -1 -1 -1 0 0 -0 -0 0 -0 0 0 0 -0 -0 -0 0 0 0 0 0 0 0 nan
nan -0 -0 -0 0 0 0 -0 -0 -0 -0 -0 -0 -0 -0 -0 -1 -1 -1 -0 -0 -1 -0 -0 -1 -1 -1 -0 -0 1 0 0 0 -0 -0 -0 -0 0 0 -0 -0 -0 -0 -0 -0 -0 -0 0 0 0 0 0 0 nan
nan -0 -0 0 0 0 -0 -0 -0 -0 -0 -0 -0 0 -0 -0 -1 -1 -1 -2 -0 -0 -1 -0 -0 -0 -1 -0 2 2 0 0 -1 -0 -0 -1 0 0 0 -0 -1 -0 0 0 0 0 0 0 0 0 0 0 0 nan
nan -0 -0 0 0 0 0 0 0 -0 -0 -0 -0 0 -0 0 0 -2 -2 -1 0 0 -0 -0 -0 -0 0 1 1 0 -0 -1 -0 -0 -0 -0 1 1 0 -1 -0 0 0 0 0 0 0 0 0 0 0 0 0 nan
nan 0 -0 -0 0 0 0 0 0 0 -0 -1 -1 -1 0 2 1 -3 -2 -0 0 -1 0 -0 -0 0 1 0 -0 -0 -0 -0 0 -0 0 0 0 0 -0 -0 0 1 0 0 0 0 0 0 0 0 0 0 0 nan
nan 0 -0 -0 -0 -0 -0 0 1 -0 -1 -1 -1 -1 1 -0 -1 -1 -0 -0 -0 0 0 0 -0 0 0 0 0 0 0 0 -0 0 0 1 0 -0 -0 -0 1 1 1 0 1 1 1 0 0 0 0 0 0 nan
nan 0 0 -0 -0 -0 -0 0 0 -0 -1 -2 -1 -0 -0 -0 -0 -0 0 0 0 0 0 -0 -0 -0 0 -0 -0 0 0 0 -0 -0 0 0 -0 0 0 0 0 0 0 0 0 0 0 0 0 0 0 0 0 nan
nan 0 -0 0 -0 -0 -0 1 1 -1 -0 -1 -0 -0 -2 0 0 0 0 -0 -0 -0 -0 0 0 -0 0 -0 -0 0 -0 0 -0 0 -0 -0 0 0 1 1 1 0 0 0 0 -0 0 0 0 0 0 0 0 nan
nan -0 0 1 -0 -0 0 1 1 1 0 0 -0 -1 -1 -0 -0 0 -0 -0 -0 -0 -0 0 0 -0 0 0 0 -0 -0 -0 0 0 0 0 0 1 1 1 1 1 1 0 0 0 0 0 0 0 0 0 0 nan
nan -0 0 0 0 -0 -0 0 1 1 0 1 0 -0 -0 -0 0 0 0 0 0 0 0 -0 0 -0 -0 0 -0 -0 -0 0 -0 -0 0 -0 0 1 1 1 1 1 0 0 0 0 0 0 0 0 0 0 0 nan
nan -0 -0 -0 -0 -0 -0 -0 0 0 0 -0 -0 0 -0 -0 -0 -0 -0 -0 -0 -0 -0 -0 -0 0 -0 0 -0 0 0 0 -0 -0 -0 -0 -0 0 0 1 1 0 0 0 0 0 0 0 0 0 0 0 0 nan
nan -0 -0 -0 -0 -0 -0 -0 0 0 0 0 -0 -0 -0 -0 0 -0 -0 -0 -0 -0 -0 0 0 0 0 -0 0 0 -0 -0 -0 -0 -0 -0 0 0 0 0 0 0 0 0 0 0 0 0 0 0 0 0 0 nan
nan -0 -0 -0 -0 -0 -0 -0 0 0 -0 -0 -0 -0 -0 -0 -0 -0 -0 -0 -0 -0 -0 0 0 0 0 0 -0 -0 -0 -0 -0 -0 -0 0 0 1 1 0 0 0 0 0 0 0 0 0 0 -0 -0 0 0 nan
nan -0 -0 -0 -1 -0 -0 -0 -0 -0 -0 -0 -0 -0 -0 -0 -0 -0 -0 -0 -0 -0 -0 -0 -0 -0 -0 -0 -0 -0 -0 -0 -1 -0 1 0 -0 0 0 0 0 0 0 0 0 0 0 -0 -0 0 0 -0 0 nan
nan -0 0 -0 -1 -0 -0 -0 -0 -0 -0 -0 -0 -0 -0 -0 -0 -0 -0 0 0 -0 -0 -0 -0 -0 -0 0 0 -0 -1 -1 0 0 1 1 1 0 0 0 1 0 0 -0 -0 -0 0 0 0 -0 -0 0 0 nan
nan -0 -0 0 -0 -0 -0 -0 -0 -0 -0 -0 -0 -0 -0 -0 0 0 0 0 0 0 -0 -0 -0 -0 -0 -0 -0 -0 -0 -0 -0 0 0 1 1 0 0 0 0 0 0 0 0 0 0 -0 -0 -0 -0 0 0 nan
nan -0 0 -0 0 -0 -0 -0 -0 -0 -0 -0 -0 -0 -0 -0 -0 -0 0 0 -0 -1 -0 -0 -0 -0 0 1 1 -0 -0 -0 -1 -1 -0 0 1 0 -0 0 0 0 0 0 -0 0 0 0 0 0 0 0 0 nan
nan -0 -0 -0 -0 -0 -0 -0 -0 -0 0 -0 -0 -0 -0 -0 -1 -1 -0 -1 -2 -1 -0 -1 -0 1 1 1 1 0 0 0 -0 -0 -1 -0 0 0 0 0 0 0 0 0 0 -0 0 -0 -0 0 0 0 0 nan
nan -0 -0 -0 -0 -0 -0 -0 0 -0 -0 -0 -0 -1 -1 -0 -0 0 -0 -2 -0 -0 0 0 1 1 0 -0 0 0 0 0 0 -0 -0 -0 0 0 -0 0 0 0 0 0 0 0 -0 -0 -0 -0 -0 -0 -0 nan
nan -0 -0 -0 -0 -1 -0 -0 -0 -0 -0 -1 -1 -1 -0 -0 0 -0 -1 -0 -0 0 0 0 0 0 -0 -0 0 0 0 0 0 0 0 0 -0 0 0 0 0 0 -0 -0 -0 -0 -0 -0 -0 -0 -0 -0 -0 nan
nan -0 -0 -1 -1 -0 -1 -1 -1 -1 -0 -1 -0 -0 -0 -0 -1 -1 -0 0 -0 0 0 0 0 -0 0 0 -0 -0 0 0 0 -0 -0 0 0 -0 0 0 0 0 -0 -0 -0 -0 -0 -0 -0 -0 -0 -0 -0 nan
nan -1 -1 -0 -0 -1 -1 -1 -1 -0 -0 -0 0 0 -0 -1 -1 0 0 0 -0 0 0 0 0 -0 -0 -0 0 0 0 0 0 -0 -0 0 0 -0 -0 -0 -0 -0 -0 -0 -0 -0 -0 -0 -0 -0 -0 -0 -0 nan
nan -0 -0 0 -0 -0 -0 0 0 0 -0 0 -0 -0 -0 -1 0 0 0 0 0 0 0 0 0 0 -0 -0 0 0 0 -0 0 0 -0 -0 -0 -0 -0 -0 -0 -0 -0 -0 -0 -0 -0 -0 -0 -0 -0 -0 -0 nan
nan -0 0 0 0 -0 -0 0 -0 -1 0 0 0 -0 -0 0 0 0 0 0 0 0 0 0 0 0 -0 -0 -0 -0 -0 -0 0 -0 -0 -0 -0 -0 -0 -0 -0 -0 -0 -0 -0 -0 -0 -0 -0 -0 0 0 0 nan
nan -0 -0 -0 -0 -1 -1 -0 0 0 -0 0 -0 -0 0 0 0 0 0 0 0 0 0 0 0 0 0 -0 -0 0 0 -0 -0 -0 -0 -0 -0 -0 -0 -0 -0 -0 -0 -0 -0 -0 -0 -0 -0 -0 -0 0 0 nan
nan 0 -0 -0 -0 -0 -0 -0 0 0 0 -0 -0 0 -0 -0 0 0 0 0 0 0 0 0 -0 -0 0 -0 0 0 0 -0 -0 -0 -0 -0 -0 -0 -0 -0 -0 -0 -0 -0 -0 -0 -0 -0 -0 -0 -0 -0 -0 nan
nan -0 -0 -0 -0 0 0 0 0 0 0 0 -0 -0 -0 -0 0 0 0 0 0 0 0 0 -0 -0 -0 0 0 0 0 -0 -0 -0 -0 -0 -0 0 0 0 0 -0 -0 -0 0 0 0 0 0 0 -0 -0 -0 nan
nan 0 -0 -0 -0 0 0 0 0 0 0 0 -0 -0 -0 -0 0 0 0 0 0 0 0 0 0 0 0 0 0 0 0 -0 -0 -0 0 0 0 0 0 0 0 0 0 0 0 0 0 0 0 0 0 0 -0 nan
nan -0 -0 -0 0 0 0 0 -0 0 0 -0 -0 -0 -0 -0 -0 0 0 0 0 0 0 0 0 0 0 0 0 0 -0 -0 0 0 0 0 0 0 0 0 0 0 0 0 0 -0 -0 0 0 0 0 0 -0 nan
nan nan nan nan nan nan nan nan nan nan nan nan nan nan nan nan nan nan nan nan nan nan nan nan nan nan nan nan nan nan nan nan nan nan nan nan nan nan nan nan nan nan nan nan nan nan nan nan nan nan nan nan nan nan
Wind_Speed
14 15 17 16 17 18 17 16 17 16 14 14 18 21 24 24 24 21 25 25 28 34 40 31 25 26 34 27 5 6 1 2 2 4 4 5 5 6 3 5 7 8 7 5 4 4 6 1 1 2 3 1 3 9
13 13 13 15 11 12 14 14 14 16 19 21 22 24 25 25 25 24 30 29 31 39 31 15 35 50 39 33 18 15 10 13 7 2 3 2 3 1 3 3 3 3 6 4 7 5 2 2 2 4 3 4 4 13
13 13 12 13 15 16 16 17 17 20 22 23 24 23 24 25 26 26 34 32 33 38 48 49 43 40 28 41 47 27 16 12 14 14 4 3 4 3 3 5 4 3 5 3 0 4 4 7 6 5 3 5 7 10
12 13 15 18 19 18 18 19 19 20 22 23 25 25 27 29 29 30 35 37 39 25 14 32 25 39 41 44 36 38 42 40 22 15 6 4 3 5 3 4 3 4 5 5 3 2 7 6 10 7 6 6 6 6
14 15 16 17 18 18 19 20 21 22 24 27 29 30 31 32 32 32 41 45 48 42 9 13 28 33 30 37 46 55 41 42 28 13 6 4 4 2 3 1 4 6 6 4 5 8 4 7 15 12 9 7 6 6
14 16 16 17 18 19 21 22 23 25 27 30 33 34 35 34 31 32 44 55 54 52 39 18 24 22 31 39 42 55 59 38 33 16 9 17 15 5 3 5 7 14 10 9 5 9 5 15 11 9 10 8 6 5
14 16 17 18 20 22 23 25 27 29 30 35 38 39 38 37 36 37 25 13 12 44 29 7 4 17 34 37 33 31 30 29 31 27 14 11 9 15 3 9 4 10 10 7 11 14 8 12 7 9 7 8 8 6
14 16 18 20 22 24 25 27 29 32 34 39 42 41 43 44 42 44 44 43 39 38 12 4 3 6 24 15 15 26 17 20 15 15 9 16 10 5 6 8 15 15 11 11 11 11 7 12 10 9 7 8 9 8
14 16 19 21 23 25 27 28 31 34 38 42 41 45 39 20 15 24 21 23 27 23 6 5 8 6 20 10 13 15 18 7 9 6 5 12 5 7 6 10 21 19 14 11 12 10 10 10 8 8 7 8 9 10
15 17 20 22 23 25 27 29 33 35 39 38 32 10 6 4 9 8 9 2 3 4 6 3 12 4 17 12 7 8 8 5 5 4 14 5 5 7 4 6 15 13 11 11 12 12 12 11 10 9 8 8 8 9
16 18 21 22 24 26 28 29 33 35 33 18 10 7 16 12 8 3 3 3 1 2 5 5 8 5 9 5 4 10 3 5 6 5 7 5 4 6 15 15 14 11 10 11 10 7 10 12 12 9 8 8 9 10
17 20 22 22 25 28 27 33 33 30 26 22 22 33 18 6 5 4 4 2 4 4 7 6 7 8 10 8 3 6 4 4 5 12 5 4 1 16 22 18 15 10 10 10 9 9 9 9 9 9 10 9 10 10
19 21 22 23 25 26 30 33 32 26 22 22 5 5 4 3 4 3 5 3 3 2 8 10 6 12 6 8 3 4 6 5 14 3 3 1 11 16 17 16 16 13 12 11 11 10 9 9 10 9 11 11 10 11
20 22 23 23 23 27 30 32 25 19 10 5 4 4 2 3 3 1 2 3 5 6 9 19 6 4 7 4 3 3 1 2 4 4 2 2 14 18 16 18 17 15 14 14 14 12 11 12 13 13 12 11 10 11
21 22 21 19 23 27 30 24 18 7 4 4 5 3 2 4 4 10 12 8 6 7 4 6 5 4 2 3 1 2 2 2 4 3 2 13 19 20 20 19 18 17 16 17 18 15 14 14 13 15 14 12 11 12
22 22 17 21 24 29 27 16 5 1 2 3 5 5 11 4 5 10 10 8 15 11 3 0 2 3 2 1 3 4 3 4 2 3 14 22 22 23 23 22 21 19 19 19 20 17 16 14 15 16 14 12 12 10
20 17 21 23 27 28 15 7 1 4 5 4 3 12 14 6 8 12 15 14 15 4 1 2 5 2 2 4 4 4 3 4 14 20 23 24 24 23 23 22 21 19 20 19 18 16 15 15 14 13 11 11 9 8
15 17 20 24 27 22 7 6 3 4 4 5 3 12 12 11 13 14 20 22 12 5 4 3 4 6 4 3 2 3 13 23 25 27 26 24 24 22 20 19 17 15 15 15 14 15 13 11 9 10 8 7 5 5
15 18 19 21 21 11 5 4 4 3 4 5 8 13 6 8 15 18 17 12 15 13 6 5 5 3 3 5 9 18 20 22 24 27 25 22 20 19 18 17 16 16 15 14 12 13 12 11 11 9 8 6 5 5
14 13 18 17 14 4 2 4 3 3 3 6 8 10 6 9 16 21 27 20 19 8 7 5 4 6 9 20 25 24 24 26 26 24 21 19 16 14 15 14 15 14 13 13 13 12 12 11 10 9 7 5 4 3
13 17 15 12 6 8 5 4 4 4 3 3 8 7 6 9 17 20 22 20 18 8 4 13 17 22 24 24 22 21 18 15 14 16 16 15 11 10 11 12 10 10 10 10 9 10 7 7 6 4 2 1 1 3
15 15 8 7 6 4 5 8 3 3 4 4 6 7 6 5 9 14 10 17 8 11 9 14 17 20 20 20 17 16 14 12 13 15 12 9 9 7 9 10 8 9 8 8 7 5 4 3 2 1 2 3 4 5
12 8 4 7 2 5 3 8 3 6 3 6 5 5 5 7 11 7 6 7 7 13 13 15 16 16 18 15 12 12 11 9 10 10 9 7 7 8 8 8 7 6 6 5 4 3 2 2 3 4 5 6 6 7
7 4 4 5 7 1 4 5 4 5 4 4 3 3 4 6 10 7 3 4 8 11 12 10 10 12 13 13 15 14 13 10 10 11 10 8 8 9 7 7 6 5 4 3 3 2 3 4 4 5 5 6 7 8
2 6 4 5 5 4 5 5 6 4 2 2 3 4 3 6 3 3 2 3 9 11 11 9 9 11 12 12 12 12 9 8 8 8 9 7 7 7 6 6 5 5 4 4 3 3 3 4 5 6 7 7 8 9
4 6 3 2 3 3 1 2 2 1 2 4 1 4 5 3 4 2 1 2 4 6 7 8 8 8 10 9 8 8 8 7 7 5 8 7 6 5 5 4 3 3 4 4 4 3 4 5 6 6 7 8 8 10
3 2 3 3 1 1 3 3 3 4 3 1 2 3 3 4 1 1 2 2 4 6 7 7 7 7 8 8 8 8 7 6 6 6 7 7 6 6 5 4 3 4 4 5 6 7 7 6 6 7 7 7 9 12
3 3 2 4 4 4 3 2 2 1 1 3 1 3 3 3 1 2 2 5 6 6 6 7 8 9 9 9 9 8 7 7 6 7 7 6 4 3 4 5 4 5 6 7 7 7 8 8 9 9 9 10 10 10
3 2 1 4 3 4 5 2 1 2 2 2 2 1 3 3 3 5 7 6 6 6 6 7 9 9 9 9 9 9 9 8 7 6 5 5 5 4 4 5 5 6 7 8 8 8 8 9 10 11 10 10 10 10
3 3 2 2 3 2 3 3 3 5 6 6 5 7 8 8 7 8 8 7 6 7 8 8 9 9 8 8 9 10 11 10 10 8 6 6 6 6 6 6 7 8 9 8 7 7 8 8 8 8 9 9 9 9
2 1 2 3 3 2 3 4 4 5 4 6 7 8 7 7 8 8 9 9 8 8 8 8 9 9 9 10 10 11 12 12 13 12 11 9 9 8 9 10 10 8 8 8 8 8 8 8 9 9 10 10 10 11
2 3 2 2 2 3 4 2 2 3 3 3 3 4 5 4 3 6 9 8 8 7 7 7 7 8 9 10 10 11 12 13 12 11 11 11 11 12 14 13 12 11 9 8 8 9 10 10 11 11 11 11 11 9
2 3 3 3 3 2 2 2 2 2 3 2 2 3 2 3 4 6 10 8 6 4 5 5 5 5 6 7 8 9 9 10 12 13 14 15 15 15 14 13 13 12 11 10 10 10 10 11 12 13 12 10 8 6
Wind_Direction
287 287 294 297 303 295 283 283 286 277 266 268 271 275 272 264 258 273 270 263 260 261 263 258 247 246 254 252 264 322 175 193 136 180 184 226 216 230 223 183 176 173 164 205 177 213 280 185 243 211 188 175 216 189
278 287 296 299 297 289 277 278 277 277 276 272 270 272 272 273 275 274 274 271 267 256 252 275 252 248 238 240 256 251 277 305 225 170 237 279 276 284 209 250 176 216 198 194 194 205 174 172 172 141 125 140 134 171
274 275 288 292 294 297 291 287 283 278 277 278 279 279 278 275 273 271 269 273 273 265 265 252 241 235 234 236 241 241 263 249 261 234 220 238 247 138 219 240 228 248 179 218 182 195 168 177 164 171 169 135 140 153
269 275 286 297 301 301 301 300 299 295 291 290 287 285 282 279 278 270 267 264 263 259 259 265 263 235 241 233 235 240 239 247 266 284 250 228 194 207 244 258 218 207 133 198 258 118 121 178 188 181 163 161 161 165
270 280 290 295 299 304 308 308 306 301 297 293 290 287 283 281 280 275 273 264 258 239 271 267 250 239 231 231 230 230 236 232 235 250 244 238 230 250 239 293 243 199 197 186 223 183 154 181 171 163 159 154 160 165
275 287 294 301 306 305 307 306 304 303 300 298 295 291 287 282 284 283 281 274 256 238 235 249 264 238 230 226 229 224 226 231 223 232 230 236 245 204 252 242 238 212 219 214 194 160 160 159 168 177 170 169 179 179
284 292 297 303 304 305 307 306 307 307 304 302 302 297 291 288 281 259 248 263 303 221 210 217 225 212 214 212 221 221 223 223 223 231 233 236 201 192 211 243 232 203 194 175 161 149 142 174 190 180 185 163 164 173
290 296 301 307 308 307 306 308 311 311 309 308 305 302 297 290 278 262 252 250 242 200 205 193 150 159 182 182 205 208 213 210 210 216 199 201 177 186 242 215 204 192 189 200 196 193 192 185 187 196 206 205 188 181
292 299 305 308 309 308 309 312 314 314 315 312 312 307 292 256 222 241 265 259 235 205 185 179 172 177 167 172 185 179 198 215 209 205 191 171 173 215 217 194 197 186 183 202 189 184 179 185 196 201 194 190 185 177
295 302 306 307 309 310 314 315 318 317 317 318 325 308 256 153 255 234 212 284 154 155 167 184 153 146 170 171 174 160 184 185 189 214 144 203 217 196 199 197 191 185 189 190 190 180 179 178 190 189 182 186 184 171
299 305 306 308 311 315 318 317 319 322 320 324 316 273 311 174 170 226 267 301 139 160 184 142 171 134 181 168 167 188 210 175 185 178 186 191 226 175 166 158 166 170 194 203 210 201 192 195 192 200 190 185 177 165
301 306 309 310 314 317 317 319 323 322 310 296 295 293 286 236 218 194 208 223 222 228 164 164 148 134 162 174 165 186 226 205 210 145 170 202 178 152 162 162 153 166 192 191 189 190 188 183 183 187 185 170 164 157
306 309 311 313 316 318 320 322 323 315 311 312 257 240 275 282 223 210 202 202 206 165 171 166 143 149 147 182 169 178 221 227 131 161 176 93 123 142 144 148 143 162 174 169 161 162 155 153 154 159 164 159 156 152
306 310 312 316 317 321 325 325 321 317 331 266 288 302 332 335 348 303 290 270 299 285 210 165 143 153 156 172 207 181 212 189 179 141 87 97 123 129 134 129 131 143 158 152 140 133 134 138 138 138 137 136 140 139
312 314 317 317 322 327 330 326 321 298 313 289 311 294 303 349 327 312 319 300 311 293 211 135 116 150 117 122 170 160 200 83 37 63 78 122 130 126 122 122 129 132 137 132 122 126 125 122 129 119 114 119 123 122
319 323 328 329 329 333 335 333 315 293 335 352 12 326 343 336 331 344 329 318 354 345 304 108 110 117 136 127 62 11 54 39 52 69 103 118 114 115 115 118 119 120 118 117 116 120 120 122 115 109 111 113 111 112
322 325 331 333 333 337 336 349 30 34 16 5 351 360 356 329 319 322 327 328 347 327 46 19 57 63 45 56 39 14 31 82 99 92 107 115 116 115 115 114 113 112 107 104 108 114 116 114 109 109 110 103 103 107
319 328 333 334 335 341 350 18 73 54 28 6 339 345 347 1 347 349 353 10 21 38 31 53 52 40 45 70 48 84 94 94 99 107 109 108 105 102 98 96 96 97 99 98 99 102 103 104 102 95 99 104 116 123
330 331 335 337 336 339 350 36 44 78 18 355 349 357 330 334 7 15 22 30 52 57 69 52 50 38 31 44 93 99 103 106 105 107 103 101 102 102 101 105 109 109 109 108 111 105 103 103 100 99 102 107 115 119
330 338 340 340 346 348 54 39 39 61 36 345 347 350 346 358 1 25 33 43 58 60 43 45 39 35 59 73 95 105 114 118 115 103 99 98 96 99 95 100 101 102 106 108 104 98 96 98 99 100 101 104 118 140
341 345 349 347 4 38 63 31 41 34 348 10 1 356 340 360 19 21 20 43 56 40 55 56 72 84 89 91 94 99 105 113 111 120 120 107 94 87 86 92 103 112 112 110 106 103 101 90 91 96 109 155 253 268
341 344 348 358 22 47 53 25 24 3 354 348 10 17 27 11 2 12 20 41 48 25 39 63 85 88 88 84 85 93 98 109 116 116 122 117 106 96 93 97 107 108 109 105 105 103 92 82 71 356 318 303 295 291
344 343 13 10 40 35 16 5 30 21 55 348 3 25 6 1 5 12 66 45 45 26 62 80 79 78 80 81 88 93 94 100 113 118 117 113 107 103 102 104 102 100 99 95 85 65 20 335 324 317 311 306 299 292
1 25 30 35 24 4 0 27 24 11 27 25 40 17 351 340 359 59 65 46 24 55 78 90 76 83 88 87 83 87 90 94 102 109 108 110 112 103 97 97 98 94 85 68 40 6 341 332 331 326 320 318 313 310
19 13 19 352 24 42 27 7 351 37 40 334 56 356 338 350 55 48 62 55 40 60 73 85 89 91 91 88 82 79 86 94 93 99 99 92 89 93 94 87 81 70 54 33 13 2 353 344 336 331 329 327 319 311
74 19 61 8 354 76 189 50 17 261 64 31 330 338 354 66 58 41 46 37 45 68 78 80 86 91 91 85 85 80 84 89 91 102 102 90 81 79 88 84 80 48 39 34 17 5 354 343 335 332 331 327 322 320
70 319 50 49 15 103 57 67 76 83 71 76 294 20 55 63 34 20 90 86 103 98 92 92 93 95 96 97 87 76 78 88 102 100 94 86 87 80 66 67 68 41 20 5 352 349 349 347 342 335 334 334 327 319
81 47 81 12 57 39 117 53 67 89 241 349 39 40 114 145 139 132 130 127 121 108 105 102 99 98 101 96 82 73 81 88 89 91 87 88 81 46 25 16 7 5 358 349 342 340 343 344 339 333 330 334 333 322
73 49 72 38 56 54 43 109 139 66 5 7 106 88 98 82 112 131 136 134 124 110 114 108 108 101 93 91 82 71 71 77 77 86 80 65 42 14 358 345 330 328 330 332 328 329 334 334 324 325 333 331 336 335
42 38 90 73 83 60 39 46 90 91 79 80 94 106 97 99 104 124 132 122 120 125 120 114 110 94 95 92 84 79 77 76 75 72 69 52 32 9 1 347 331 319 312 313 310 305 313 317 317 318 321 324 325 325
101 105 90 68 93 84 83 98 105 97 91 81 93 120 118 119 112 119 122 116 116 124 114 111 118 99 93 87 81 72 67 59 52 44 36 26 14 7 354 347 342 332 317 307 305 307 309 311 313 314 315 315 312 312
52 65 93 88 93 102 116 86 84 79 79 75 93 113 123 114 105 154 147 136 117 112 120 114 119 110 94 85 78 70 62 54 46 37 31 27 20 10 3 358 352 348 341 327 315 312 313 316 318 316 318 316 312 309
83 74 83 108 113 97 76 96 71 83 79 86 94 119 110 123 133 164 179 173 161 136 116 118 121 138 104 83 71 61 52 43 37 29 22 18 15 13 9 3 357 350 344 338 329 323 320 319 318 317 316 316 313 310
Height
1494 1495 1495 1495 1494 1494 1492 1491 1491 1493 1492 1493 1494 1494 1495 1496 1497 1500 1499 1501 1503 1494 1485 1491 1490 1489 1491 1493 1492 1489 1487 1485 1488 1491 1491 1484 1481 1467 1461 1459 1467 1470 1477 1475 1477 1473 1458 1439 1441 1440 1441 1440 1440 1441
1490 1491 1493 1491 1489 1490 1488 1485 1484 1487 1488 1488 1488 1488 1488 1488 1488 1491 1491 1493 1493 1488 1472 1473 1473 1475 1481 1487 1488 1486 1483 1483 1477 1480 1479 1476 1469 1466 1461 1457 1450 1457 1448 1450 1447 1443 1437 1438 1437 1437 1438 1437 1438 1439
1487 1486 1487 1488 1486 1485 1484 1482 1478 1479 1481 1481 1480 1480 1480 1481 1481 1483 1482 1485 1484 1476 1460 1453 1452 1465 1470 1474 1479 1482 1478 1478 1475 1471 1468 1467 1467 1462 1460 1456 1446 1441 1439 1443 1440 1435 1434 1436 1437 1437 1437 1437 1438 1439
1483 1482 1480 1482 1481 1481 1478 1477 1473 1472 1473 1472 1471 1471 1470 1471 1471 1472 1471 1473 1473 1469 1451 1428 1443 1446 1457 1462 1462 1465 1469 1470 1472 1470 1464 1463 1463 1454 1453 1448 1446 1439 1438 1437 1436 1432 1432 1433 1434 1435 1435 1436 1437 1438
1479 1481 1477 1475 1476 1474 1472 1470 1468 1466 1466 1464 1463 1461 1460 1459 1460 1459 1453 1450 1453 1462 1437 1427 1429 1432 1437 1442 1443 1450 1454 1458 1463 1466 1460 1458 1454 1454 1448 1447 1443 1433 1431 1434 1428 1422 1425 1427 1429 1430 1433 1434 1435 1436
1474 1476 1473 1470 1468 1468 1465 1462 1460 1458 1456 1453 1450 1448 1446 1446 1447 1446 1430 1416 1422 1432 1437 1427 1419 1421 1427 1431 1432 1434 1438 1446 1451 1452 1448 1447 1446 1449 1449 1441 1426 1425 1424 1424 1423 1423 1425 1428 1431 1432 1429 1430 1433 1434
1469 1470 1469 1464 1463 1461 1457 1454 1451 1448 1445 1441 1436 1432 1429 1428 1430 1428 1413 1404 1404 1408 1415 1414 1409 1407 1411 1419 1424 1428 1434 1435 1438 1441 1436 1439 1438 1440 1440 1432 1423 1422 1422 1424 1423 1422 1426 1428 1429 1430 1432 1428 1429 1432
1465 1464 1463 1459 1456 1453 1450 1447 1443 1438 1433 1427 1421 1414 1408 1405 1401 1393 1388 1391 1398 1396 1396 1392 1394 1401 1404 1407 1416 1421 1425 1428 1426 1427 1425 1428 1433 1432 1430 1417 1417 1418 1419 1422 1422 1420 1421 1424 1427 1428 1429 1430 1428 1429
1459 1459 1456 1454 1450 1447 1443 1439 1434 1428 1422 1414 1404 1394 1383 1379 1380 1376 1379 1377 1380 1382 1376 1377 1380 1391 1397 1401 1406 1411 1415 1416 1418 1412 1414 1418 1418 1417 1407 1408 1411 1411 1413 1417 1420 1420 1420 1422 1425 1427 1427 1428 1427 1427
1454 1453 1451 1448 1445 1441 1436 1431 1426 1420 1412 1404 1396 1385 1374 1372 1374 1374 1374 1371 1368 1364 1369 1370 1375 1383 1391 1394 1398 1402 1402 1403 1405 1405 1406 1404 1402 1400 1402 1402 1406 1409 1412 1417 1419 1419 1418 1419 1424 1425 1425 1427 1427 1426
1450 1448 1445 1442 1438 1434 1429 1425 1419 1412 1404 1398 1395 1385 1373 1370 1371 1371 1370 1366 1364 1366 1365 1367 1371 1379 1384 1387 1391 1393 1390 1390 1389 1394 1397 1394 1392 1393 1397 1400 1403 1406 1413 1416 1418 1417 1417 1419 1421 1424 1425 1426 1427 1427
1444 1442 1439 1436 1432 1428 1423 1417 1410 1405 1401 1397 1393 1383 1375 1369 1368 1368 1366 1364 1361 1358 1359 1362 1367 1372 1380 1382 1383 1386 1382 1381 1370 1379 1387 1383 1386 1386 1390 1396 1397 1404 1413 1415 1417 1417 1418 1418 1419 1422 1425 1426 1427 1427
1438 1436 1433 1429 1425 1420 1415 1408 1402 1398 1392 1388 1382 1377 1371 1367 1364 1363 1355 1355 1354 1354 1355 1356 1362 1366 1375 1376 1377 1379 1377 1368 1370 1375 1376 1383 1384 1388 1392 1396 1397 1406 1412 1414 1415 1417 1417 1418 1420 1423 1425 1427 1428 1428
1433 1430 1426 1423 1418 1414 1408 1401 1395 1391 1389 1385 1379 1375 1373 1371 1370 1367 1367 1363 1358 1355 1353 1354 1358 1360 1365 1371 1369 1365 1365 1365 1362 1363 1376 1384 1386 1390 1396 1395 1399 1407 1412 1415 1413 1415 1419 1421 1422 1424 1425 1428 1429 1429
1427 1424 1420 1417 1413 1408 1402 1395 1391 1388 1387 1384 1380 1376 1374 1373 1371 1367 1363 1359 1356 1351 1349 1349 1352 1354 1357 1361 1364 1364 1364 1360 1365 1374 1382 1388 1390 1392 1395 1399 1406 1411 1416 1415 1411 1417 1421 1423 1427 1425 1425 1430 1431 1431
1422 1418 1415 1412 1407 1402 1396 1391 1387 1386 1385 1384 1383 1380 1376 1372 1370 1366 1362 1356 1352 1349 1347 1348 1350 1355 1359 1360 1361 1368 1365 1373 1379 1385 1388 1389 1393 1397 1400 1404 1409 1414 1414 1415 1414 1420 1422 1427 1427 1426 1429 1433 1433 1434
1418 1415 1412 1408 1402 1396 1391 1389 1388 1387 1387 1386 1385 1383 1380 1377 1373 1369 1362 1356 1352 1350 1349 1349 1353 1361 1362 1372 1380 1379 1382 1386 1389 1391 1395 1399 1404 1407 1409 1411 1414 1416 1415 1416 1419 1424 1426 1428 1428 1429 1431 1432 1434 1436
1416 1412 1408 1404 1399 1394 1390 1388 1388 1389 1390 1389 1388 1386 1382 1381 1376 1369 1362 1356 1352 1352 1353 1358 1362 1371 1377 1384 1388 1391 1393 1395 1398 1400 1404 1408 1410 1412 1413 1414 1416 1419 1420 1421 1424 1426 1428 1428 1429 1430 1431 1433 1435 1437
1413 1409 1406 1402 1397 1393 1391 1391 1391 1393 1393 1392 1390 1387 1383 1381 1378 1373 1367 1362 1359 1358 1361 1369 1378 1387 1390 1391 1394 1396 1399 1401 1404 1408 1411 1414 1416 1417 1418 1420 1421 1422 1423 1426 1428 1427 1428 1430 1430 1431 1433 1436 1437 1439
1411 1407 1403 1399 1395 1393 1392 1394 1395 1394 1395 1396 1392 1389 1387 1384 1380 1375 1370 1366 1363 1366 1376 1387 1395 1399 1398 1399 1400 1402 1405 1408 1409 1412 1415 1418 1421 1422 1423 1423 1423 1424 1426 1428 1429 1430 1430 1430 1431 1432 1434 1436 1437 1439
1408 1405 1401 1398 1395 1394 1396 1397 1397 1397 1397 1396 1394 1392 1390 1387 1385 1381 1379 1377 1373 1389 1398 1404 1405 1404 1404 1405 1406 1408 1410 1413 1415 1416 1419 1422 1424 1424 1424 1424 1425 1427 1427 1428 1429 1429 1431 1431 1433 1434 1435 1436 1437 1437
1406 1404 1401 1399 1398 1397 1399 1400 1400 1400 1399 1397 1396 1395 1396 1396 1395 1395 1395 1393 1402 1409 1410 1411 1410 1410 1410 1410 1413 1414 1416 1417 1418 1419 1422 1424 1425 1426 1425 1427 1428 1428 1429 1429 1429 1430 1431 1432 1434 1434 1434 1434 1435 1435
1405 1403 1402 1401 1400 1400 1405 1402 1401 1401 1402 1403 1400 1401 1402 1402 1402 1401 1406 1413 1416 1417 1415 1414 1414 1415 1415 1417 1418 1418 1419 1420 1421 1423 1424 1425 1426 1427 1427 1427 1428 1429 1429 1430 1431 1431 1432 1433 1433 1433 1433 1433 1433 1433
1405 1404 1403 1404 1405 1407 1406 1405 1406 1405 1405 1407 1410 1414 1411 1409 1407 1410 1419 1422 1424 1421 1420 1420 1420 1419 1420 1421 1421 1422 1423 1425 1425 1425 1426 1427 1427 1428 1428 1429 1429 1430 1431 1431 1432 1433 1433 1432 1432 1431 1431 1431 1430 1429
1408 1411 1410 1410 1410 1409 1413 1413 1412 1412 1419 1417 1418 1418 1415 1413 1419 1425 1426 1427 1426 1425 1424 1424 1424 1424 1424 1426 1426 1426 1427 1428 1427 1427 1428 1429 1428 1429 1430 1430 1431 1432 1432 1432 1433 1432 1432 1431 1431 1430 1429 1428 1427 1426
1413 1413 1414 1414 1415 1415 1417 1420 1420 1420 1420 1421 1421 1418 1417 1419 1429 1433 1430 1430 1429 1429 1429 1429 1428 1428 1428 1429 1430 1430 1430 1430 1430 1431 1431 1432 1431 1432 1432 1433 1433 1433 1433 1433 1432 1432 1431 1430 1429 1428 1427 1426 1425 1423
1416 1416 1416 1416 1416 1416 1417 1418 1418 1419 1425 1426 1423 1422 1425 1434 1434 1431 1431 1431 1431 1432 1433 1433 1432 1432 1432 1433 1433 1433 1433 1433 1433 1433 1432 1432 1433 1433 1433 1434 1433 1433 1433 1432 1431 1430 1429 1428 1427 1425 1424 1423 1422 1420
1415 1416 1417 1417 1416 1417 1419 1421 1423 1425 1423 1423 1423 1428 1431 1431 1433 1432 1432 1433 1434 1434 1434 1434 1435 1435 1435 1435 1435 1435 1434 1434 1434 1434 1434 1434 1434 1434 1434 1433 1433 1432 1431 1431 1430 1428 1427 1425 1424 1423 1422 1421 1420 1418
1416 1417 1418 1418 1419 1420 1422 1423 1424 1424 1424 1424 1424 1427 1429 1431 1432 1433 1434 1434 1435 1435 1436 1436 1436 1436 1436 1436 1436 1436 1435 1435 1435 1434 1434 1434 1434 1435 1434 1433 1432 1431 1430 1429 1428 1426 1425 1424 1422 1421 1420 1418 1417 1415
1418 1418 1419 1420 1421 1424 1424 1424 1425 1425 1425 1425 1426 1428 1430 1432 1433 1434 1435 1436 1437 1437 1438 1438 1438 1438 1438 1439 1439 1439 1438 1437 1437 1437 1436 1436 1435 1435 1433 1432 1431 1429 1428 1427 1426 1425 1424 1422 1421 1419 1418 1417 1416 1415
1419 1420 1420 1421 1423 1425 1425 1425 1425 1426 1427 1427 1428 1429 1431 1434 1436 1437 1438 1438 1439 1440 1440 1440 1441 1441 1441 1441 1440 1440 1439 1439 1438 1437 1436 1435 1434 1433 1432 1430 1428 1427 1426 1425 1424 1422 1421 1420 1419 1417 1416 1415 1414 1412
1420 1420 1421 1423 1425 1426 1426 1426 1427 1428 1429 1429 1431 1432 1434 1435 1437 1438 1439 1440 1441 1441 1442 1442 1443 1443 1442 1442 1442 1441 1441 1440 1440 1439 1438 1436 1434 1432 1430 1428 1427 1425 1423 1422 1421 1420 1419 1417 1416 1415 1413 1412 1410 1409
1421 1421 1422 1423 1425 1426 1427 1427 1428 1429 1430 1431 1432 1433 1433 1435 1437 1439 1440 1440 1442 1442 1443 1443 1443 1444 1443 1443 1443 1442 1442 1442 1440 1439 1438 1436 1434 1432 1430 1428 1426 1424 1421 1420 1418 1417 1416 1415 1413 1412 1410 1409 1408 1407